Location: Unspecified
(0.0000°N, 0.0000°E)
Time: 02:30:23
(UTC+00:00)

CZ-3B DEB - Pass Details

Date: 14 December 2025
Orbit: 439 x 40833 km, 23.6° (Epoch: 17 December)

Event Time Altitude Azimuth Distance (km) Brightness Sun altitude
Rises 15:39:45 0° 288° (WNW) 7,776 ? 30.7°
Reaches altitude 10° 15:43:19 10° 294° (WNW) 7,876 ? 29.9°
Maximum altitude 19:01:11 66° 340° (NNW) 35,645 ? -15.2°
Drops below altitude 10° 03:12:34 10° 149° (SSE) 3,791 ? -36.7°
Sets 03:14:41 0° 136° (SE) 4,107 ? -36.3°
